Location: ????????
(44.5298°N, 134.9793°E)
Time: 08:58:34
(UTC+00:00)

Daily predictions for brighter satellites

Satellite Brightness Start Highest point End
(mag) Time Altitude Azimuth Time Altitude Azimuth Time Altitude Azimuth
Meteor 2-20 Rocket 4.4 12:00:22 10° S 12:06:08 89° W 12:12:09 10° N
Terra 3.6 12:07:59 10° SSW 12:11:59 27° W 12:16:00 10° NW
Cosmos 2208 Rocket 4.0 12:07:12 10° SSW 12:12:24 84° WNW 12:17:37 10° NNE
Cosmos 2227 4.3 12:09:03 10° SSW 12:14:47 86° WNW 12:20:36 10° NNE
SPOT 3 Rocket 3.5 12:11:14 16° SSE 12:15:22 75° ENE 12:20:31 10° N
BlueWalker 3 3.6 12:13:02 10° W 12:15:38 19° SW 12:17:35 13° S
Sich 1 3.0 12:11:48 10° N 12:16:04 66° E 12:18:59 20° SSE
GP-B 4.2 12:12:37 10° NNE 12:16:22 27° E 12:18:26 19° SE
CZ-2C R/B 3.8 12:15:49 16° E 12:16:38 18° ENE 12:18:38 10° NNE
CZ-4B R/B 2.9 12:14:32 20° SSE 12:17:01 61° ENE 12:20:55 10° N
Cosmos 44 Rocket 3.8 12:12:20 10° NW 12:17:24 58° WSW 12:21:07 17° SSE
Milstar 3 Cent rocket 3.7 12:16:12 10° SSW 12:18:24 13° S 12:18:24 13° S
Cosmos 1461 3.1 12:18:17 10° NNW 12:21:41 45° NE 12:23:32 22° ESE
IRS-1C Rocket 4.2 12:19:41 19° SSE 12:23:31 67° ENE 12:28:44 10° N
Ariane Rocket 3.0 12:23:47 19° SSE 12:27:23 73° ENE 12:32:28 10° N
Cosmos 1553 Rocket 4.2 12:24:21 17° SSE 12:29:16 55° E 12:35:25 10° NNE
Cosmos 1603 3.7 12:24:46 10° NNW 12:30:33 86° ENE 12:34:24 22° SSE
CZ-4C R/B 3.4 12:24:13 10° NW 12:31:21 60° WSW 12:38:08 18° SSE
Cosmos 1844 Rocket 3.3 12:33:16 10° SW 12:38:43 57° WNW 12:44:13 10° NNE
NOSS 3-2 (C) 3.3 12:35:17 15° S 12:39:01 45° ESE 12:44:25 10° NE
Cosmos 1758 3.2 12:37:12 10° NNW 12:40:52 74° W 12:42:49 26° S
Okean 3 Rocket 3.7 12:37:38 10° NNW 12:42:05 74° W 12:44:50 22° S
USA 186 3.6 12:40:59 12° SW 12:42:12 16° W 12:43:48 10° NW
Okean-O 4.2 12:38:29 10° SSW 12:42:16 29° W 12:46:05 10° NW
NOSS 2-3 (C) 4.4 12:47:59 21° E 12:47:59 21° E 12:49:57 10° ENE
Cosmos 1805 Rocket 3.4 12:45:24 10° N 12:49:45 82° E 12:51:51 30° SSE
Cosmos 1833 Rocket 3.8 12:46:00 10° N 12:51:09 35° NE 12:54:40 18° ESE
ATLAS 2AS CENTAUR R/B 4.3 12:48:00 10° WNW 12:53:06 23° WSW 12:58:14 10° SSW
Cosmos 1408 Rocket 3.5 12:49:44 10° N 12:54:09 88° W 12:56:20 30° S
OAO 3 Rocket 4.4 12:56:05 10° WSW 12:59:08 21° SSW 12:59:08 21° SSW
Cosmos 2278 Rocket 4.1 12:59:11 12° E 12:59:34 12° E 13:01:45 10° ENE
Cosmos 1743 Rocket 3.6 12:56:54 10° N 13:01:12 63° E 13:02:50 36° SSE
Cosmos 1745 Rocket 4.3 12:58:26 10° N 13:04:36 55° ENE 13:07:51 28° SE
Cosmos 1340 Rocket 3.7 13:01:18 10° NNW 13:04:50 39° W 13:06:34 24° SSW
CZ-4B R/B 4.1 13:05:32 22° SSW 13:08:33 51° W 13:13:35 10° NNW
Lacrosse 5 rocket 3.1 13:12:23 14° E 13:12:23 14° E 13:13:09 10° ENE
Cosmos 1151 Rocket 3.8 13:11:23 18° SSW 13:14:20 50° WNW 13:18:34 10° N
Cosmos 2344 3.8 13:09:22 20° S 13:14:41 47° ESE 13:21:30 10° NE
NOSS 2-3 (D) 3.0 13:14:39 30° SSW 13:16:21 84° SE 13:20:07 10° NE
Cosmos 1607 4.0 13:15:27 10° NW 13:21:52 77° WSW 13:25:02 32° SSE
Cosmos 1703 3.0 13:21:17 48° SW 13:21:52 59° W 13:25:01 10° N
OAO 2 Rocket 4.4 13:17:54 10° WSW 13:21:17 26° SSW 13:21:17 26° SSW
Okean O Rocket 4.3 13:21:12 10° WSW 13:22:29 11° W 13:23:46 10° WNW
Cosmos 1241 Rocket 4.4 13:20:18 21° SSW 13:24:30 70° ESE 13:30:42 10° NE
BREEZE-M R/B 4.0 13:22:21 28° SSW 13:24:44 50° SE 13:33:10 10° ENE
Cosmos 2285 Rocket 4.2 13:19:16 10° NNW 13:25:33 63° WSW 13:28:51 29° S
Cosmos 1417 Rocket 4.4 13:23:16 29° S 13:26:38 81° E 13:32:58 10° N
IKONOS-2 4.3 13:27:08 10° NNE 13:31:15 77° ESE 13:32:14 50° S
Cosmos 2315 Rocket 4.1 13:29:35 33° SSE 13:32:20 61° E 13:38:27 10° NNE
Cosmos 1633 Rocket 3.4 13:28:13 10° N 13:32:31 53° ENE 13:33:33 42° SE
Cosmos 1953 1.9 13:34:40 10° N 13:38:15 78° W 13:38:36 68° SSW
Iridium 4 Rocket 4.1 13:37:33 25° SSW 13:40:36 55° W 13:45:39 10° N
NOSS 2-3 (E) 4.0 13:41:03 17° WSW 13:43:41 49° NW 13:47:21 10° NNE
USA 215 3.2 13:40:52 31° SE 13:44:18 78° SW 13:50:52 10° NW
CZ-2C R/B 4.3 13:47:09 15° W 13:47:09 15° W 13:48:49 10° NW
Meteor 1-21 4.2 13:46:49 40° SSE 13:48:47 70° E 13:54:24 10° NNE
Cosmos 1943 Rocket 2.6 13:49:17 38° SE 13:50:29 43° ESE 13:55:48 10° NE
Cosmos 1420 Rocket 4.1 13:45:32 10° NNW 13:50:44 67° ENE 13:52:27 41° SE
ARIANE 5 R/B 3.2 13:52:24 38° ESE 13:53:30 46° ENE 13:57:45 10° N
Cosmos 1538 Rocket 4.4 13:50:36 23° SW 13:53:44 59° WNW 13:58:55 10° NNE
Helios 1A 3.2 13:54:07 10° N 13:58:00 59° WNW 13:58:58 44° SW
Cosmos 1400 Rocket 4.1 13:55:27 10° NNE 13:58:35 26° ENE 13:58:50 25° E
Cosmos 923 Rocket 3.9 14:00:14 46° S 14:01:45 74° ESE 14:06:59 10° NNE
Cosmos 1470 Rocket 3.5 13:59:31 10° N 14:03:59 77° E 14:04:45 59° SSE
ALOS 2 3.0 14:04:58 44° ESE 14:05:51 52° ENE 14:10:08 10° N
CZ-2C R/B 4.1 14:04:30 18° ESE 14:06:56 26° ENE 14:11:09 10° N
BREEZE-M DEB (TANK) 3.4 14:01:40 10° WNW 14:07:04 66° SSW 14:09:21 34° SE
Helios 1B rocket 1.9 14:08:15 79° WNW 14:08:15 79° WNW 14:11:36 10° NNW
Cosmos 2112 Rocket 4.2 14:07:47 45° SE 14:08:38 50° ESE 14:13:38 10° NNE
S3M 4.3 14:05:27 27° SSW 14:08:42 58° WNW 14:14:45 10° N
Cosmos 1933 Rocket 4.3 14:07:15 10° N 14:11:18 39° ENE 14:11:58 36° E
Okean 2 3.0 14:12:00 83° SE 14:12:06 85° E 14:15:57 10° N
USA 59 Rocket 1.1 14:14:24 24° ENE 14:14:24 24° ENE 14:15:53 10° NE
USA 81 4.2 14:11:17 10° N 14:16:31 61° E 14:17:54 45° SE
Timation 1 Rocket 4.2 14:11:28 10° NNW 14:17:29 82° WSW 14:19:27 45° SSE
CZ-2C R/B 3.7 14:13:56 10° N 14:18:38 81° WNW 14:19:48 51° SSW
Cosmos 1371 Rocket 4.2 14:15:41 10° NNW 14:20:54 61° ENE 14:22:31 42° SE
GEOS 3 Rocket 3.6 14:20:10 46° SSE 14:21:51 82° SW 14:27:16 10° NW
Cosmos 1833 Rocket 3.4 14:29:52 10° NW 14:35:04 39° WSW 14:36:19 34° SW
Cosmos 1441 Rocket 3.9 14:36:12 38° NE 14:36:12 38° NE 14:38:32 10° NNE
PSLV R/B 3.6 14:32:11 10° NNE 14:36:51 89° WNW 14:37:41 61° SSW
Cosmos 2082 Rocket 2.8 14:34:49 10° NNW 14:40:18 49° ENE 14:42:55 28° ESE
USA 238 DEB 3.4 14:39:27 37° SW 14:42:08 88° SE 14:48:50 10° NE
USA 238 3.4 14:39:42 37° SSW 14:42:20 87° SE 14:49:03 10° NE
Cosmos 2278 Rocket 2.1 14:40:58 47° SSW 14:42:42 86° ESE 14:48:24 10° NNE
Cosmos 1869 Rocket 3.6 14:39:05 10° N 14:43:22 63° E 14:43:48 58° ESE
Helios 1B 4.3 14:39:32 10° NNE 14:43:49 88° WNW 14:44:14 72° SSW
Spot 4 4.1 14:44:44 47° SW 14:45:33 53° W 14:50:17 10° NNW
MetOp-A 3.6 14:45:29 53° E 14:45:49 56° ENE 14:49:37 10° N
Lacrosse 5 rocket 2.1 14:45:26 30° WNW 14:46:33 40° NW 14:49:54 10° NE
Cosmos 1515 Rocket 4.2 14:50:49 39° WSW 14:51:38 44° WNW 14:55:48 10° N
Cosmos 1331 Rocket 4.3 14:56:32 10° NNW 15:01:37 57° ENE 15:03:22 38° SE
CZ-2C R/B 3.1 14:57:45 10° NNE 15:03:20 85° WNW 15:04:48 50° SSW
Cosmos 1733 Rocket 3.8 14:59:44 10° N 15:03:47 40° ENE 15:04:34 36° ESE
Cosmos 1680 Rocket 4.3 15:01:49 30° WSW 15:03:55 45° WNW 15:08:55 10° N
ACS3 Solar Sail 2.1 14:59:12 10° NNE 15:04:43 47° E 15:06:22 38° SE
Cosmos 1624 Rocket 4.2 15:00:10 10° NNW 15:05:21 55° WSW 15:06:16 48° SW
Cosmos 1862 Rocket 4.2 15:08:27 40° ESE 15:08:49 41° E 15:12:51 10° NNE
Okean 3 4.1 15:10:42 38° W 15:11:03 39° WNW 15:14:49 10° N
Cosmos 1048 Rocket 3.9 15:10:43 55° SSW 15:11:53 86° ESE 15:17:09 10° NNE
Cosmos 2056 Rocket 3.9 15:07:05 10° NNW 15:11:56 45° WSW 15:12:34 43° SW
Okean 1-7 3.2 15:18:47 53° ESE 15:19:05 54° E 15:23:12 10° NNE
NOSS 2-1 (E) 3.3 15:21:15 61° WNW 15:21:19 61° NW 15:24:32 10° NNE
Cosmos 2074 Rocket 4.3 15:18:49 10° NNW 15:24:50 52° W 15:26:48 38° SW
Cosmos 2369 Rocket 3.4 15:26:51 25° SE 15:28:11 28° ESE 15:32:52 10° NE
Geosat 3.9 15:23:13 10° NNE 15:28:15 88° ESE 15:29:30 52° SSW
ARIANE 5 R/B 4.5 15:29:45 18° W 15:30:00 18° W 15:33:07 10° NW
Meteor 1-24 Rocket 4.2 15:30:56 38° SSE 15:32:59 57° E 15:38:53 10° NNE
Cosmos 1400 Rocket 4.5 15:30:58 10° NW 15:33:17 20° W 15:33:17 20° W
SL-12 R/B(2) 4.4 15:30:54 36° S 15:34:16 60° ESE 15:43:25 10° NE
Cosmos 1943 Rocket 3.6 15:30:45 17° WSW 15:34:20 32° NW 15:39:22 10° N
Cosmos 2366 rocket 4.5 15:28:22 10° N 15:34:37 55° ENE 15:37:51 28° SE
Cosmos 614 Rocket 3.9 15:34:08 54° S 15:35:16 78° ESE 15:40:22 10° NNE
Cosmos 2327 Rocket 4.4 15:31:31 10° N 15:37:41 81° E 15:40:04 40° SSE
IDEFIX/ARIANE 42P 4.4 15:37:38 10° NE 15:41:33 21° E 15:43:48 16° SE
Cosmos 2218 Rocket 4.4 15:36:45 10° N 15:43:02 58° ENE 15:46:20 28° SE
ARIANE 6 FM1 Upper Stage 4.2 15:43:22 24° ESE 15:43:22 24° ESE 15:46:23 10° ENE
Timation 2 Rocket 4.4 15:42:48 29° WSW 15:45:58 56° WNW 15:52:23 10° NNE
Cosmos 1328 4.5 15:46:07 36° WNW 15:46:07 36° WNW 15:49:21 10° N
CZ-2C R/B 3.0 15:45:57 40° SW 15:46:53 44° W 15:51:52 10° NNW
Lacrosse 4 Rocket 4.4 15:45:19 10° N 15:47:28 14° NE 15:49:36 10° ENE
Cosmos 1174 3.7 15:50:20 65° WSW 15:50:44 72° WNW 15:54:18 10° NNE
Cosmos 468 4.5 15:50:52 46° SW 15:52:26 77° WNW 15:57:44 10° NNE
Cosmos 2228 Rocket 3.0 15:51:48 60° SSE 15:52:31 78° E 15:56:54 10° N
NOSS 3-1 (C) 3.2 15:55:08 42° SSE 15:55:53 46° ESE 16:00:55 10° NE
Nadezhda 1 Rocket 4.5 15:53:33 32° SW 15:55:56 47° WNW 16:01:53 10° N
Cosmos 962 Rocket 4.5 15:50:36 10° N 15:56:58 77° W 15:59:34 38° S
Landsat 5 3.6 15:56:18 10° N 15:59:53 48° WNW 16:00:10 47° W
Meteor 2-15 4.3 15:54:11 10° N 16:00:18 88° W 16:02:53 37° S
USA 59 Rocket 1.9 15:59:49 12° WNW 16:01:25 15° NW 16:03:21 10° N
Meteor 2-13 Rocket 4.4 16:02:39 39° S 16:05:08 88° W 16:11:18 10° N
Cosmos 1452 Rocket 3.7 16:04:53 10° NNW 16:10:00 54° WSW 16:11:16 43° SSW
Cosmos 2341 Rocket 3.9 16:05:59 10° N 16:12:14 77° W 16:14:59 36° S
BREEZE-M DEB (TANK) 2.8 16:09:01 10° WNW 16:17:02 69° NNE 16:20:05 10° ESE
Cosmos 1992 Rocket 4.2 16:14:16 10° NNW 16:19:27 66° ENE 16:22:48 22° SE
MSX 4.4 16:15:30 10° NNE 16:21:05 49° E 16:24:01 26° SSE
Exosat Rocket 4.5 16:20:49 28° WSW 16:23:39 53° WNW 16:30:48 10° NNE
Lacrosse 5 rocket 3.9 16:22:04 10° NW 16:23:51 13° NNW 16:25:37 10° NNE
Cosmos 2082 Rocket 3.3 16:19:27 10° NW 16:24:02 26° WSW 16:24:42 25° WSW
Cosmos 2278 Rocket 4.3 16:23:37 10° W 16:27:31 19° NW 16:31:26 10° N
SL-8 Rocket 4.2 16:22:20 10° NNW 16:28:19 55° W 16:30:53 33° SSW
SL-8 R/B 3.6 16:29:25 35° WSW 16:31:24 86° SSE 16:36:11 10° ENE
Cosmos 1656 Rocket 4.4 16:28:44 25° WSW 16:31:27 42° WNW 16:36:42 10° NNE
Cosmos 1869 2.8 16:30:01 10° NNW 16:33:26 64° W 16:33:37 63° WSW
Cosmos 1300 Rocket 3.7 16:29:15 10° N 16:33:35 69° E 16:35:31 32° SSE
Cosmos 1703 Rocket 3.5 16:35:48 44° SSW 16:37:03 71° W 16:41:25 10° N
Meteor 2-15 Rocket 4.5 16:31:09 10° NNW 16:37:12 65° W 16:40:10 31° SSW
ATLAS 5 CENTAUR R/B 0.9 16:40:49 52° WNW 16:41:00 53° NW 16:43:58 10° NNE
COSMOS 2406 3.7 16:36:27 10° NW 16:41:45 41° WSW 16:43:31 32° SSW
PSLV R/B 4.1 16:39:03 10° N 16:42:50 53° WNW 16:43:47 41° WSW
Cosmos 1818 3.9 16:41:08 31° S 16:43:29 53° ESE 16:48:47 10° NE
ACS3 Solar Sail 3.0 16:41:57 10° N 16:46:41 28° WNW 16:49:44 18° WSW
Cosmos 1356 Rocket 3.7 16:44:46 10° NNW 16:48:34 44° W 16:49:19 39° SW
ADEOS Rocket 3.1 16:44:26 10° NNE 16:50:57 78° ESE 16:54:32 26° S
Cosmos 1315 Rocket 4.0 16:48:46 10° NW 16:51:53 24° W 16:52:01 24° W
USA 290 2.0 16:49:53 10° NNW 16:53:01 80° WSW 16:53:30 59° S
BREEZE-M DEB (TANK) 4.4 16:37:17 10° WSW 16:59:21 80° NNW 17:04:07 10° ENE
Cosmos 2297 3.9 16:56:41 28° SW 16:59:47 65° WNW 17:05:30 10° NNE
COSMOS 2455 2.9 17:01:40 26° SSW 17:05:08 77° ESE 17:11:10 10° NE
Cosmos 2239 Rocket 4.4 17:01:19 10° NNW 17:07:30 74° W 17:11:57 20° S
USA 276 2.8 17:06:44 26° WNW 17:07:59 46° NNW 17:10:57 10° ENE
Cosmos 2369 Rocket 2.8 17:08:36 22° WSW 17:11:56 45° WNW 17:17:18 10° NNE
ALOS 3.9 17:10:09 10° NE 17:14:03 28° E 17:17:56 10° SSE
Iridium 82 3.7 17:14:09 51° S 17:14:44 84° W 17:17:32 10° N
Cosmos 921 Rocket 3.5 17:12:28 21° S 17:15:01 51° ESE 17:19:07 10° NNE
Cosmos 1023 Rocket 4.4 17:13:25 25° SSW 17:16:24 84° ESE 17:21:30 10° NNE
Nadezhda 3 Rocket 4.1 17:13:58 23° SSW 17:17:55 66° W 17:24:08 10° N
SJ 16-02 3.0 17:15:31 11° SSE 17:18:54 26° E 17:22:27 10° NE
IDEFIX/ARIANE 42P 2.9 17:16:13 10° N 17:21:18 54° WNW 17:24:29 22° SW
ARIANE 6 FM1 Upper Stage 3.5 17:19:19 20° WSW 17:21:48 43° NW 17:25:45 10° NNE
SL-4 R/B 1.2 17:20:42 33° WSW 17:21:56 82° NNW 17:25:04 10° ENE
Resurs 1-4 Rocket 3.1 17:17:36 10° NNE 17:22:33 41° E 17:27:29 10° SSE
ADEOS II 3.8 17:18:47 10° NE 17:23:13 28° E 17:27:38 10° SSE
Cosmos 1339 Rocket 4.4 17:19:33 21° SSW 17:23:48 75° W 17:29:54 10° N
Meteor 1-21 Rocket 4.3 17:19:42 20° SSW 17:23:50 85° W 17:29:47 10° N
COSMOS 2441 4.4 17:19:04 10° NNE 17:23:57 78° ESE 17:27:28 19° S
Lacrosse 4 Rocket 1.3 17:21:38 10° NNW 17:25:51 89° SSW 17:30:01 10° SSE
Cosmos 1934 Rocket 4.0 17:20:21 10° N 17:26:39 88° W 17:33:00 10° S
Envisat 3.4 17:22:58 10° NNE 17:27:58 58° E 17:32:21 13° S
Cosmos 1782 Rocket 4.3 17:26:37 10° NNW 17:30:40 36° W 17:32:46 23° SW
FENGYUN 3A 3.9 17:25:51 10° N 17:31:08 59° WNW 17:34:47 20° SW
NOSS 3-1 (A) 2.9 17:31:27 22° SW 17:34:29 78° NW 17:40:02 10° NE
Cosmos 407 Rocket 4.0 17:33:03 14° S 17:37:16 54° ESE 17:42:15 10° NNE
H-2A R/B 4.2 17:35:21 10° SE 17:38:42 30° ENE 17:42:08 10° N
USA 308 2.6 17:36:53 24° SW 17:39:09 78° SE 17:43:23 10° ENE
USA 234 3.9 17:34:21 10° ENE 17:40:33 44° SE 17:45:53 14° SSW
CZ-2D R/B 2.7 17:39:41 10° NNE 17:45:06 59° E 17:50:25 10° S
NOSS 3-1 (C) 4.4 17:42:31 10° W 17:46:46 30° NW 17:51:47 10° NNE
NPP 4.2 17:41:40 10° N 17:46:46 44° WNW 17:50:45 16° SW
NOAA 11 4.4 17:45:10 10° N 17:50:35 60° WNW 17:55:06 15° SSW
Cosmos 2242 Rocket 3.7 17:49:38 17° SSW 17:52:58 62° W 17:57:19 10° N
H-2A R/B 2.4 17:48:44 10° NNE 17:54:02 64° ESE 17:59:08 10° S
SeaSat 1 2.4 17:50:29 10° SSE 17:55:22 86° WSW 18:00:18 10° NNW
Meteor 1-11 4.3 17:54:18 13° SSW 17:59:11 69° WNW 18:04:49 10° N
Lacrosse 5 rocket 4.1 18:00:32 10° NNW 18:01:39 11° N 18:02:46 10° NNE
Cosmos 405 Rocket 2.0 17:59:22 14° S 18:01:47 83° ESE 18:04:45 10° NNE
Cosmos 1025 Rocket 3.1 17:58:47 10° S 18:03:05 81° E 18:07:28 10° N
Cosmos 371 Rocket 3.3 17:59:04 14° SSW 18:03:16 80° WNW 18:08:07 10° NNE
Cosmos 1605 Rocket 4.0 18:01:26 10° N 18:07:46 76° W 18:13:56 10° S
USA 281 4.3 18:05:03 10° SE 18:11:18 49° ENE 18:17:34 10° NNW
Cosmos 540 Rocket 3.4 18:06:25 10° NNW 18:11:31 78° WSW 18:16:34 10° SSE
Cosmos 1346 Rocket 3.9 18:09:29 13° SW 18:11:56 26° WNW 18:15:04 10° NNW
Okean 2 Rocket 3.2 18:07:40 10° N 18:12:03 77° E 18:16:24 10° SSE
SL-8 R/B 4.4 18:09:18 10° W 18:13:57 53° N 18:18:38 10° ENE
DMSP B5D2-2 4.5 18:09:22 10° S 18:14:22 45° W 18:19:26 10° NNW
Cosmos 304 Rocket 4.1 18:11:03 12° SW 18:15:16 54° WNW 18:19:57 10° NNE
Cosmos 1455 Rocket 4.5 18:13:56 10° N 18:18:00 40° ENE 18:22:04 10° SSE
Cosmos 2151 Rocket 3.6 18:15:15 10° NNW 18:19:43 64° W 18:24:09 10° S
Cosmos 1378 Rocket 4.3 18:20:37 11° SW 18:24:26 34° WNW 18:28:22 10° N
Cosmos 2221 Rocket 3.7 18:21:03 10° S 18:25:33 88° E 18:30:05 10° N
Cosmos 1697 Rocket 4.2 18:20:58 10° SSE 18:25:57 34° ESE 18:30:56 10° NE
ATLAS 3B R/B 4.5 18:22:46 10° S 18:29:12 31° ESE 18:35:52 10° NE
Cosmos 1763 Rocket 3.8 18:28:16 10° NNW 18:33:03 44° WSW 18:37:48 10° S
Cosmos 1782 3.4 18:29:48 10° N 18:33:16 51° E 18:36:41 10° SSE
Cosmos 2292 Rocket 2.6 18:30:39 10° S 18:33:31 88° E 18:36:36 10° N
METEOR-M 4.2 18:29:30 10° NNE 18:34:53 89° ESE 18:40:13 10° SSW
Sich 1 Rocket 3.7 18:36:09 10° NNW 18:40:42 69° W 18:45:11 10° S
